Showing default

3CAT-5/A (TYVAK-0161), 46292

Orbit data source: Space-Track

3CAT-5/A (TYVAK-0161), 46292 is a payload satellite owned by UPC (ES) in SSO that was launched on Thu, 03 Sep 2020 UTC via a VEGA launch vehicle from the French Guiana (FRGUI). Payloads include a variety of satellites, spacecraft, and rockets equipped with specific instruments for various scientific and technological missions. These include communications satellites like Starlink; space stations such as the ISS; scientific satellites like the Hubble; Earth observation satellites from companies like Planet Labs, Umbra, and HawkEye 360; GPS; miniature CubeSats for education and research; and military/defense satellites.

Loading next visibility...
3CAT-5/A (TYVAK-0161) details
Identifier
46292, 2020-061W
Orbit
SSO
Last TLE update14 hours ago
Origin
Flag of ESUPC (ES / SPN)
ManufacturerUPC
MissionNon-operational Amateur Technology
Bus & MotorCUBESAT 6U, Unknown motor
Mass~10 kg wet, ~10 kg dry
Launch date (UTC)
2020-09-03 (4 years ago)
Launch vehicle
VEGA
Launch site
French Guiana (FRGUI)
Object type
Payload
Rocket body
Debris
Shape & HBRBox, Unknown HBR
Radar Cross Section0.080 m², Medium (>0.1 m² and < 1m²)

Expand to show TLE details & history

TLE from 14 hours ago
0 3CAT-5/A (TYVAK-0161)
1 46292U 20061W   24348.61242776  .00012934  00000-0  47763-3 0  9997
2 46292  97.3251  45.7822 0001528 319.4282  40.6844 15.27874455236460
Epoch: 2024-12-13T14:41Z
Definitive object data (Epoch: 2024-12-13T14:41:53.758Z)
Latitude0.00002°
Longitude102.5323°
Altitude484.476 km
Speed7.624 km/s
True Right ascension03h 03m 07s
True Declination0° 00' 00"
Sunlit
Object was in full shadow at TLE epoch
Visualization TLE readout
Latitude65.78289°
Longitude86.61076°
Altitude493.863 km
Speed7.624 km/s
Apparent Right ascension17h 30m 30s
Apparent Declination39° 27' 07"
Sunlit
Object is in full shadow
Visualization observer readout
Local Sidereal Time03:41:08
Azimuth339.072° N
Elevation-6.795°
Doppler factor1
Orbital elements
Apogee altitude480.167 km
Perigee altitude478.072 km
Semi-major axis6,857.256 km
Eccentricity0.0001528
Inclination97.3251°
RAAN45.7822°
Arg. of periapsis319.4282°
True anomaly40.69582°
Mean anomaly40.6844°
Eccentric anomaly40.69011°
Mean motion3.82224 °/min
BSTAR0.00047763
Orbital period94.19 mins
Loading maneuver chart data...

3CAT-5/A (TYVAK-0161) Visibility forecast

Observer location: undefined°, undefined

Span
Click to sort rows by Start time (UTC) header in descending order
Start Az.
Max El. time (UTC)
Max El. Az.
Max El.
End time (UTC)
End Az.
5 mins2024-12-14 16:25:07.845Z37.105° NE2024-12-14 16:28:07.845Z115.819° SE28.196°2024-12-14 16:30:07.845Z157.807° S
4 mins2024-12-15 04:34:07.845Z215.33° SW2024-12-15 04:35:07.845Z244.197° WSW29.369°2024-12-15 04:38:07.845Z324.466° NNW
|